Adelaide, South Australia

10:48 PM ACST on August 25, 2016 (GMT +0930)
Adelaide

Weather History for 94672 - January, 2014

Change the Weather History Date:

Wednesday, January 8, 2014

  Actual Average Record
Temperature  
Mean Temperature 66 °F -  
Max Temperature 77 °F 82 °F - ()
Min Temperature 56 °F 60 °F - ()
Cooling Degree Days 2    
Growing Degree Days 16 (Base 50)    
Moisture  
Dew Point 47 °F    
Average Humidity 51    
Maximum Humidity 72    
Minimum Humidity 12    
Precipitation  
Precipitation 0.00 in 0.03 in - ()
Sea Level Pressure  
Sea Level Pressure 30.06 in    
Wind  
Wind Speed 13 mph ()    
Max Wind Speed 23 mph    
Max Gust Speed 30 mph    
Visibility 8.4 miles    
Events      
T = Trace of Precipitation, MM = Missing Value Source: Averaged Metar Reports

Daily Weather History Graph

Daily Weather History Graph

Search for Another Location

Airport or City:

Trip Planner

Search our weather history database for the weather conditions in past years. The results will help you decide how hot, cold, wet, or windy it might be!

Date:

Astronomy

Jan. 08, 2014 Rise Set
Actual Time 6:11 AM ACDT 8:33 PM ACDT
Civil Twilight 5:41 AM ACDT 9:02 PM ACDT
Nautical Twilight 5:05 AM ACDT 9:38 PM ACDT
Astronomical Twilight 4:26 AM ACDT 10:17 PM ACDT
Moon 1:31 PM ACDT (1/8) No Moon Set
Length of Visible Light 15h 20m
Length of Day
14h 22m
Waxing Crescent, 49% of the Moon is Illuminated
Jan 8
Waxing Crescent
Jan 8
First Quarter
Jan 16
Full
Jan 24
Last Quarter
Jan 31
New

Hourly Weather History & Observations

Time (ACDT) Temp. Dew Point Humidity Pressure Visibility Wind Dir Wind Speed Gust Speed Precip Events Conditions
12:00 AM 61 °F 51 °F 60% 30.13 in 22 mi SE 17.3 mph - -   Partly Cloudy
12:00 AM 60.8 °F 50.0 °F 68% 30.12 in 6.2 mi SE 17.3 mph 29.9 mph N/A   Partly Cloudy
12:30 AM 60.8 °F 50.0 °F 68% 30.12 in 6.2 mi SE 16.1 mph - N/A   Partly Cloudy
1:00 AM 60.8 °F 51.8 °F 72% 30.09 in 6.2 mi SE 17.3 mph - N/A   Partly Cloudy
1:30 AM 60 °F 51 °F 63% 30.11 in - SE 18.4 mph - -  
1:30 AM 60.8 °F 50.0 °F 68% 30.09 in 6.2 mi SE 18.4 mph - N/A   Partly Cloudy
2:00 AM 59.0 °F 50.0 °F 72% 30.09 in 6.2 mi SE 16.1 mph - N/A   Partly Cloudy
2:30 AM 59.0 °F 50.0 °F 72% 30.06 in 6.2 mi SE 17.3 mph - N/A   Partly Cloudy
3:00 AM 59 °F 50 °F 63% 30.09 in 19 mi SE 15.0 mph - -   Partly Cloudy
3:00 AM 59.0 °F 50.0 °F 72% 30.06 in 6.2 mi SE 15.0 mph - N/A   Partly Cloudy
3:30 AM 59.0 °F 48.2 °F 67% 30.06 in 6.2 mi ESE 13.8 mph - N/A   Partly Cloudy
4:00 AM 59.0 °F 48.2 °F 67% 30.06 in 6.2 mi ESE 12.7 mph - N/A   Partly Cloudy
4:30 AM 58 °F 47 °F 59% 30.09 in - ESE 10.4 mph - -  
4:30 AM 57.2 °F 48.2 °F 72% 30.06 in 6.2 mi ESE 10.4 mph - N/A   Partly Cloudy
5:00 AM 57.2 °F 46.4 °F 67% 30.09 in 6.2 mi ESE 8.1 mph - N/A   Partly Cloudy
5:30 AM 57.2 °F 46.4 °F 67% 30.09 in 6.2 mi SE 10.4 mph - N/A   Partly Cloudy
6:00 AM 57 °F 46 °F 57% 30.11 in 19 mi ESE 10.4 mph - -   Partly Cloudy
6:00 AM 57.2 °F 46.4 °F 67% 30.09 in 6.2 mi ESE 10.4 mph - N/A   Partly Cloudy
6:30 AM 57.2 °F 46.4 °F 67% 30.09 in 6.2 mi SE 8.1 mph - N/A   Partly Cloudy
7:00 AM 59.0 °F 46.4 °F 63% 30.12 in 6.2 mi SE 5.8 mph - N/A   Partly Cloudy
7:30 AM 61 °F 47 °F 50% 30.13 in - ESE 4.6 mph - -  
7:30 AM 60.8 °F 46.4 °F 59% 30.12 in 6.2 mi ESE 4.6 mph - N/A   Partly Cloudy
8:00 AM 62.6 °F 48.2 °F 59% 30.12 in 6.2 mi South 2.3 mph - N/A   Partly Cloudy
8:30 AM 62.6 °F 46.4 °F 55% 30.12 in 6.2 mi NW 4.6 mph - N/A   Partly Cloudy
9:00 AM 65 °F 47 °F 41% 30.14 in 19 mi North 3.5 mph - -   Partly Cloudy
9:00 AM 64.4 °F 46.4 °F 52% 30.12 in 6.2 mi North 3.5 mph - N/A   Partly Cloudy
9:30 AM 64.4 °F 48.2 °F 56% 30.12 in 6.2 mi NW 4.6 mph - N/A   Partly Cloudy
10:00 AM 64.4 °F 48.2 °F 56% 30.12 in 6.2 mi West 9.2 mph - N/A   Partly Cloudy
10:30 AM 66 °F 47 °F 39% 30.12 in - West 6.9 mph - -  
10:30 AM 66.2 °F 46.4 °F 49% 30.09 in 6.2 mi West 6.9 mph - N/A   Partly Cloudy
11:00 AM 66.2 °F 48.2 °F 52% 30.09 in 6.2 mi West 11.5 mph - N/A   Partly Cloudy
11:30 AM 68.0 °F 50.0 °F 52% 30.09 in 6.2 mi West 13.8 mph - N/A   Partly Cloudy
12:00 PM 68 °F 50 °F 43% 30.10 in 19 mi West 16.1 mph - -   Partly Cloudy
12:00 PM 68.0 °F 50.0 °F 52% 30.09 in 6.2 mi West 16.1 mph - N/A   Partly Cloudy
12:30 PM 69.8 °F 51.8 °F 53% 30.09 in 6.2 mi WSW 16.1 mph - N/A   Partly Cloudy
1:00 PM 68.0 °F 51.8 °F 56% 30.06 in 6.2 mi WSW 19.6 mph - N/A   Partly Cloudy
1:30 PM 70 °F 51 °F 41% 30.07 in - WSW 19.6 mph - -  
1:30 PM 69.8 °F 51.8 °F 53% 30.06 in 6.2 mi WSW 19.6 mph - N/A   Partly Cloudy
2:00 PM 71.6 °F 51.8 °F 50% 30.04 in 6.2 mi SW 21.9 mph - N/A   Partly Cloudy
2:30 PM 73.4 °F 50.0 °F 44% 30.04 in 6.2 mi SW 21.9 mph - N/A   Partly Cloudy
3:00 PM 73 °F 49 °F 31% 30.03 in 19 mi SW 21.9 mph - -   Partly Cloudy
3:00 PM 73.4 °F 48.2 °F 41% 30.01 in - SW 21.9 mph - N/A   Clear
3:30 PM 73.4 °F 48.2 °F 41% 30.01 in - SW 23.0 mph - N/A   Clear
4:00 PM 71.6 °F 50.0 °F 46% 30.01 in - SW 23.0 mph - N/A   Clear
4:30 PM 73 °F 49 °F 31% 30.01 in - SW 23.0 mph - -  
4:30 PM 73.4 °F 48.2 °F 41% 30.01 in 6.2 mi SW 23.0 mph - N/A   Partly Cloudy
5:00 PM 73.4 °F 50.0 °F 44% 29.98 in 6.2 mi SW 23.0 mph - N/A   Partly Cloudy
5:21 PM 77.0 °F 37.4 °F 24% 29.98 in 6.2 mi South 12.7 mph - N/A   Partly Cloudy
5:30 PM 75.2 °F 35.6 °F 24% 29.98 in - SSE 12.7 mph - N/A   Clear
6:00 PM 76 °F 34 °F 12% 29.99 in 19 mi SSE 15.0 mph - -   Partly Cloudy
6:00 PM 75.2 °F 33.8 °F 22% 29.98 in - SSE 15.0 mph - N/A   Clear
6:30 PM 73.4 °F 35.6 °F 25% 29.98 in - SSE 15.0 mph - N/A   Clear
7:00 PM 73.4 °F 37.4 °F 27% 29.98 in - SSE 15.0 mph - N/A   Clear
7:30 PM 72 °F 44 °F 25% 30.00 in - South 15.0 mph - -  
7:30 PM 71.6 °F 42.8 °F 35% 29.98 in - South 15.0 mph - N/A   Clear
8:00 PM 69.8 °F 46.4 °F 43% 29.98 in - SSE 12.7 mph - N/A   Clear
8:30 PM 68.0 °F 46.4 °F 46% 30.01 in - SSE 10.4 mph - N/A   Clear
9:00 PM 65 °F 48 °F 44% 30.01 in 19 mi South 11.5 mph - -   Partly Cloudy
9:00 PM 66.2 °F 48.2 °F 52% 30.01 in - South 11.5 mph - N/A   Clear
9:30 PM 64.4 °F 48.2 °F 56% 30.01 in - SSE 11.5 mph - N/A   Clear
10:00 PM 64.4 °F 48.2 °F 56% 30.01 in - SSE 10.4 mph - N/A   Clear
10:30 PM 63 °F 48 °F 48% 30.02 in - South 10.4 mph - -  
10:30 PM 62.6 °F 48.2 °F 59% 30.01 in - South 10.4 mph - N/A   Clear
11:00 PM 62.6 °F 48.2 °F 59% 30.01 in - SSE 13.8 mph - N/A   Clear
11:30 PM 62.6 °F 50.0 °F 63% 30.01 in - SSE 10.4 mph - N/A   Clear